Current Version              Previous Version:    01  02  03  04  05  06  07  08  09  10  11  12  13  14  15  16  17  18  19  20  21  22  23  24  25  26  27  28  29  30  
   31  32  33  34  35  36  37  38  39  40  41  42  43  44  45  46  47  48  49  50  51  52  53  54  55  56  57  58  59  60  

[Printable]
391
ASUS44 KFWD 230610
RWRTX
NORTH TEXAS HOURLY WEATHER ROUNDUP
NATIONAL WEATHER SERVICE FORT WORTH TX
1200 AM CST SUN NOV 23 2014

NOTE: "FAIR" INDICATES FEW OR NO CLOUDS BELOW 12,000 FEET WITH NO
SIGNIFICANT WEATHER AND/OR OBSTRUCTIONS TO VISIBILITY.

TXZ118-119-230700-
DALLAS/FORT WORTH METROPLEX

CITY           SKY/WX    TMP DP  RH WIND       PRES   REMARKS
DFW AIRPORT    CLOUDY    52  52 100 E5        29.66F
6HR MIN TEMP:  52; 6HR MAX TEMP:  59; 6HR PCP:  0.34;

DALLAS LOVE    CLOUDY    57  55  93 E6        29.68F
6HR MIN TEMP:  57; 6HR MAX TEMP:  62; 6HR PCP:  0.33;

FTW MEACHAM    MOCLDY    56  53  90 W3        29.66F
6HR MIN TEMP:  56; 6HR MAX TEMP:  60; 6HR PCP:  0.35;

DAL-EXECUTIVE  CLOUDY    58  54  86 SE3       29.67F
6HR MIN TEMP:  57; 6HR MAX TEMP:  63; 6HR PCP:  0.28;

FTW-ALLIANCE   MOCLDY    55  53  93 CALM      29.67F
6HR MIN TEMP:  55; 6HR MAX TEMP:  60; 6HR PCP:  0.28;

FTW-SPINKS     MOCLDY    56  54  91 CALM      29.68F
6HR MIN TEMP:  55; 6HR MAX TEMP:  61; 6HR PCP:  0.01;

ARLINGTON      MOCLDY    55  52  89 CALM      29.67F
6HR MIN TEMP:  55; 6HR MAX TEMP:  63; 6HR PCP:  0.30;

GRAND PRAIRIE  MOCLDY    55  55 100 CALM      29.69F
6HR MIN TEMP:  55; 6HR MAX TEMP:  61; 6HR PCP:  0.22;

ADDISON        CLOUDY    58  58 100 SE9       29.70F
6HR MIN TEMP:  58; 6HR MAX TEMP:  62; 6HR PCP:  0.21;

MESQUITE       CLOUDY    58  57  97 SE3       29.69F
6HR MIN TEMP:  58; 6HR MAX TEMP:  61; 6HR PCP:  0.32;

LANCASTER      CLOUDY    56  55  93 E7        29.68F
6HR MIN TEMP:  56; 6HR MAX TEMP:  61; 6HR PCP:  0.20;

$$

TXZ091>094-102>105-117-120-121-131>134-230700-
NORTH CENTRAL TEXAS

CITY           SKY/WX    TMP DP  RH WIND       PRES   REMARKS
SHRMAN/DENISON MOCLDY    59  59 100 SE10      29.71F
6HR MIN TEMP:  57; 6HR MAX TEMP:  61; 6HR PCP:  0.08;

GAINESVILLE    CLOUDY    56  55  98 S7        29.70F FOG
6HR MIN TEMP:  56; 6HR MAX TEMP:  59; 6HR PCP:  0.18;

BOWIE          CLOUDY    52  52 100 S3        29.69S
6HR MIN TEMP:  52; 6HR MAX TEMP:  57; 6HR PCP:  0.08;

BRIDGEPORT     FOG       52  52 100 CALM      29.70F VSB 3/4
6HR MIN TEMP:  52; 6HR MAX TEMP:  57; 6HR PCP:  0.13;

DECATUR        MOCLDY    55  54  96 SE6       29.68F
6HR MIN TEMP:  55; 6HR MAX TEMP:  57; 6HR PCP:  0.10;

DENTON         MOCLDY    56  55  97 S9        29.68F
6HR MIN TEMP:  56; 6HR MAX TEMP:  60; 6HR PCP:  0.17;

MCKINNEY       CLOUDY    58  57  97 S7        29.69F
6HR MIN TEMP:  57; 6HR MAX TEMP:  62; 6HR PCP:  0.21;

GREENVILLE     CLOUDY    61  59  94 S6        29.70F
ROCKWALL       CLOUDY    58  58 100 SE5       29.67F FOG
6HR MIN TEMP:  58; 6HR MAX TEMP:  62; 6HR PCP:  0.27;

TERRELL        CLOUDY    61  59  93 SE3       29.70F
6HR MIN TEMP:  61; 6HR MAX TEMP:  63; 6HR PCP:  0.41;

WAXAHACHIE     CLOUDY    56  56 100 E3        29.67F
6HR MIN TEMP:  55; 6HR MAX TEMP:  61; 6HR PCP:  0.18;

CLEBURNE       MOCLDY    55  55 100 SE5       29.68F
GRANBURY       PTCLDY    57  53  85 CALM      29.70F
6HR MIN TEMP:  57; 6HR MAX TEMP:  62; 6HR PCP:  0.40;

$$

TXZ083>090-098>101-113>116-127>130-139>142-154-155-230700-
WESTERN NORTH TEXAS

CITY           SKY/WX    TMP DP  RH WIND       PRES   REMARKS
WICHITA FALLS  FOG       47  46  97 SE5       29.66F VSB 1/2
6HR MIN TEMP:  46; 6HR MAX TEMP:  56; 6HR PCP:  0.01;

WF-KICKAPOO    FOG       48  48 100 CALM      29.68F VSB 1/4
6HR MIN TEMP:  48; 6HR MAX TEMP:  55;

VERNON         CLOUDY    54  52  94 SW8       29.66F
ABILENE        MOCLDY    53  51  93 S8        29.72F
6HR MIN TEMP:  51; 6HR MAX TEMP:  56; 6HR PCP: TRACE;

ABILENE-DYESS  CLEAR     53  50  90 S14       29.70F
6HR MIN TEMP:  52; 6HR MAX TEMP:  55;

BRECKENRIDGE   CLEAR     55  54  96 SW6       29.69F
6HR MIN TEMP:  55; 6HR MAX TEMP:  59;

GRAHAM         CLEAR     53  53 100 CALM      29.69S
6HR MIN TEMP:  52; 6HR MAX TEMP:  56;

MINERAL WELLS  PTCLDY   N/A N/A N/A S3        29.67F
                                      6HR PCP:  0.12;

STEPHENVILLE   PTCLDY    55  52  91 W5        29.71F
6HR MIN TEMP:  54; 6HR MAX TEMP:  56; 6HR PCP:  0.70;

COMANCHE       PTCLDY    53  53 100 SW7       29.72F
6HR MIN TEMP:  53; 6HR MAX TEMP:  56; 6HR PCP:  0.69;

BROWNWOOD      CLOUDY    54  52  94 MISG      29.70F
COLEMAN        CLEAR     53  53 100 SW6       29.73F
6HR MIN TEMP:  53; 6HR MAX TEMP:  56; 6HR PCP:  0.05;

BRADY          CLEAR     52  52 100 S5        29.72F
$$

TXZ143>147-156>162-174-175-230700-
CENTRAL TEXAS

CITY           SKY/WX    TMP DP  RH WIND       PRES   REMARKS
WACO           CLOUDY    57  55  93 SE7       29.67F
6HR MIN TEMP:  57; 6HR MAX TEMP:  62; 6HR PCP:  0.13;

WACO-MCGREGOR  CLOUDY    57  52  82 SE9       29.69F
6HR MIN TEMP:  57; 6HR MAX TEMP:  61; 6HR PCP:  0.28;

HILLSBORO      CLOUDY    58  55  89 SE9       29.65F
6HR MIN TEMP:  57; 6HR MAX TEMP:  62; 6HR PCP:  0.10;

CORSICANA      CLOUDY    60  58  92 SE8       29.69F
6HR MIN TEMP:  60; 6HR MAX TEMP:  62; 6HR PCP:  0.38;

MEXIA          CLOUDY    59  58  98 E3        29.71F
6HR MIN TEMP:  59; 6HR MAX TEMP:  61; 6HR PCP:  0.60;

HEARNE         LGT RAIN  59  58  97 NE3       29.71F
6HR MIN TEMP:  59; 6HR MAX TEMP:  64; 6HR PCP:  1.78;

CAMERON        CLOUDY    59  59  97 NE3       29.70F
6HR MIN TEMP:  59; 6HR MAX TEMP:  64; 6HR PCP:  0.99;

TEMPLE         CLOUDY    57  52  82 NE15      29.68F
6HR MIN TEMP:  57; 6HR MAX TEMP:  61; 6HR PCP:  0.40;

KILLEEN        CLOUDY    56  55  96 SE5       29.69F
6HR MIN TEMP:  56; 6HR MAX TEMP:  60; 6HR PCP:  0.22;

KILLEEN-SKYLRK CLOUDY    55  52  88 E7        29.68F
6HR MIN TEMP:  55; 6HR MAX TEMP:  61; 6HR PCP:  0.29;

FORT HOOD      CLOUDY    58  55  90 E5        29.68F
6HR MIN TEMP:  58; 6HR MAX TEMP:  63; 6HR PCP:  0.26;

GATESVILLE     CLOUDY    55  55 100 SE6       29.70F
LAMPASAS       CLOUDY    55  55  97 CALM      29.70F
6HR MIN TEMP:  55; 6HR MAX TEMP:  60; 6HR PCP:  0.13;

$$

TXZ095>097-106>112-122>126-135>138-148>153-164>167-230700-
EAST TEXAS

CITY           SKY/WX    TMP DP  RH WIND       PRES   REMARKS
PARIS          CLOUDY    59  57  94 SE13      29.72R
6HR MIN TEMP:  57; 6HR MAX TEMP:  61; 6HR PCP:  0.12;

SULPHUR SPRNGS CLOUDY    60  58  94 S3        29.72F
6HR MIN TEMP:  60; 6HR MAX TEMP:  64; 6HR PCP:  0.16;

MOUNT PLEASANT CLOUDY    61  60  97 SE14G22   29.74F
6HR MIN TEMP:  61; 6HR MAX TEMP:  66; 6HR PCP:  0.27;

MINEOLA        CLOUDY    61  61 100 S5        29.72F
TYLER          LGT RAIN  61  59  93 SE9       29.74F
6HR MIN TEMP:  61; 6HR MAX TEMP:  64; 6HR PCP:  1.60;

LONGVIEW       LGT RAIN  61  60  97 CALM      29.77F FOG
6HR MIN TEMP:  61; 6HR MAX TEMP:  65; 6HR PCP:  1.21;

MARSHALL       CLOUDY    58  56  92 CALM      29.79F
6HR MIN TEMP:  58; 6HR MAX TEMP:  68; 6HR PCP:  2.21;

ATHENS         LGT RAIN  57  57 100 SE6       29.71F
PALESTINE      RAIN      59  59 100 E3        29.74F
JACKSONVILLE   HVY RAIN  61  60  97 E7        29.75F
HENDERSON      RAIN      61  61 100 CALM      29.78F
6HR MIN TEMP:  60; 6HR MAX TEMP:  64;

NACOGDOCHES    CLOUDY    63  61  94 E3        29.75F
6HR MIN TEMP:  63; 6HR MAX TEMP:  64; 6HR PCP:  1.29;

LUFKIN         CLOUDY    67  63  87 SE9       29.72F
6HR MIN TEMP:  66; 6HR MAX TEMP:  68; 6HR PCP:  0.40;

$$

SUPPLEMENTAL OBSERVATIONS (CENTRAL)

CITY           SKY/WX    TMP DP  RH WIND       PRES   REMARKS
CADDO GRASSLND   N/A     61  57  88 S6          N/A
PAT MAYSE LAKE   N/A     59  57  94 SE5         N/A
MCGREGOR         N/A     57  52  82 SE8         N/A
TEMPLE           N/A     57  54  88 NE12        N/A
$$

SUPPLEMENTAL OBSERVATIONS (WEST)

CITY           SKY/WX    TMP DP  RH WIND       PRES   REMARKS
MILLERS CREEK    N/A     52  46  82 S6          N/A
POSSUM KINGDOM   N/A     54  50  87 W5          N/A
LBJ GRASSLAND    N/A     55  52  88 S5          N/A
GRANBURY         N/A     55  52  88 NW2G20      N/A
HAMBY            N/A     52  48  87 S12         N/A